• In Deutschland
  • Länderverzeichnis
  • Für 7 Tage
  • Wassertemperatur
  • Satellitenkarten
  • Wetterkarte
  • Widgets
  • user-avatar
    Anmelden

    Stündliche Wetter Manama

    Heute, 23 Juni, Freitag

    Zeit Temperatur Niederschläge Wind Luftdruck Luftfeuchtigkeit
    00:00 +39°C° 0 mm 12 m/S 750 mmHg 37%
    01:00 +39°C° 0 mm 12 m/S 750 mmHg 39%
    02:00 +38°C° 0 mm 11 m/S 750 mmHg 40%
    03:00 +38°C° 0 mm 11 m/S 750 mmHg 41%
    04:00 +38°C° 0 mm 11 m/S 750 mmHg 41%
    05:00 +38°C° 0 mm 11 m/S 750 mmHg 41%
    06:00 +37°C° 0 mm 11 m/S 751 mmHg 42%
    07:00 +38°C° 0 mm 11 m/S 751 mmHg 38%
    08:00 +39°C° 0 mm 11 m/S 751 mmHg 34%
    09:00 +41°C° 0 mm 11 m/S 751 mmHg 30%
    10:00 +42°C° 0 mm 11 m/S 751 mmHg 28%
    11:00 +42°C° 0 mm 11 m/S 751 mmHg 26%
    12:00 +42°C° 0 mm 12 m/S 751 mmHg 23%
    13:00 +42°C° 0 mm 12 m/S 751 mmHg 22%
    14:00 +42°C° 0 mm 12 m/S 751 mmHg 21%
    15:00 +42°C° 0 mm 12 m/S 750 mmHg 21%
    16:00 +41°C° 0 mm 11 m/S 750 mmHg 22%
    17:00 +41°C° 0 mm 11 m/S 750 mmHg 23%
    18:00 +39°C° 0 mm 11 m/S 750 mmHg 24%
    19:00 +39°C° 0 mm 10 m/S 750 mmHg 27%
    20:00 +39°C° 0 mm 9 m/S 751 mmHg 29%
    21:00 +38°C° 0 mm 9 m/S 751 mmHg 32%
    22:00 +38°C° 0 mm 9 m/S 751 mmHg 34%
    23:00 +38°C° 0 mm 9 m/S 750 mmHg 35%

    Morgen, 24 Juni, Samstag

    Zeit Temperatur Niederschläge Wind Luftdruck Luftfeuchtigkeit
    00:00 +38°C° 0 mm 9 m/S 750 mmHg 37%
    01:00 +37°C° 0 mm 9 m/S 750 mmHg 38%
    02:00 +37°C° 0 mm 9 m/S 750 mmHg 39%
    03:00 +37°C° 0 mm 9 m/S 750 mmHg 41%
    04:00 +37°C° 0 mm 9 m/S 750 mmHg 41%
    05:00 +35°C° 0 mm 9 m/S 750 mmHg 42%
    06:00 +35°C° 0 mm 9 m/S 750 mmHg 42%
    07:00 +38°C° 0 mm 9 m/S 750 mmHg 37%
    08:00 +39°C° 0 mm 9 m/S 751 mmHg 32%
    09:00 +40°C° 0 mm 9 m/S 751 mmHg 27%
    10:00 +42°C° 0 mm 9 m/S 751 mmHg 24%
    11:00 +43°C° 0 mm 9 m/S 751 mmHg 22%
    12:00 +44°C° 0 mm 8 m/S 751 mmHg 20%
    13:00 +43°C° 0 mm 9 m/S 750 mmHg 20%
    14:00 +43°C° 0 mm 9 m/S 750 mmHg 20%
    15:00 +43°C° 0 mm 9 m/S 750 mmHg 20%
    16:00 +41°C° 0 mm 8 m/S 749 mmHg 21%
    17:00 +41°C° 0 mm 8 m/S 749 mmHg 22%
    18:00 +40°C° 0 mm 7 m/S 749 mmHg 23%
    19:00 +39°C° 0 mm 6 m/S 749 mmHg 28%
    20:00 +37°C° 0 mm 5 m/S 749 mmHg 32%
    21:00 +36°C° 0 mm 4 m/S 750 mmHg 36%
    22:00 +36°C° 0 mm 3 m/S 749 mmHg 36%
    23:00 +35°C° 0 mm 3 m/S 749 mmHg 37%

    übermorgen, 25 Juni, Sonntag

    Zeit Temperatur Niederschläge Wind Luftdruck Luftfeuchtigkeit
    00:00 +35°C° 0 mm 3 m/S 749 mmHg 37%
    01:00 +35°C° 0 mm 4 m/S 749 mmHg 38%
    02:00 +35°C° 0 mm 4 m/S 749 mmHg 39%
    03:00 +35°C° 0 mm 5 m/S 748 mmHg 40%
    04:00 +35°C° 0 mm 5 m/S 749 mmHg 43%
    05:00 +35°C° 0 mm 6 m/S 749 mmHg 45%
    06:00 +36°C° 0 mm 6 m/S 749 mmHg 47%
    07:00 +38°C° 0 mm 7 m/S 749 mmHg 41%
    08:00 +40°C° 0 mm 7 m/S 749 mmHg 35%
    09:00 +41°C° 0 mm 8 m/S 750 mmHg 29%
    10:00 +43°C° 0 mm 8 m/S 750 mmHg 27%
    11:00 +44°C° 0 mm 8 m/S 749 mmHg 24%
    12:00 +44°C° 0 mm 8 m/S 749 mmHg 22%
    13:00 +44°C° 0 mm 8 m/S 749 mmHg 22%
    14:00 +44°C° 0 mm 8 m/S 749 mmHg 23%
    15:00 +44°C° 0 mm 8 m/S 748 mmHg 24%
    16:00 +43°C° 0 mm 8 m/S 748 mmHg 25%
    17:00 +41°C° 0 mm 7 m/S 748 mmHg 27%
    18:00 +40°C° 0 mm 7 m/S 748 mmHg 29%
    19:00 +39°C° 0 mm 6 m/S 749 mmHg 31%
    20:00 +37°C° 0 mm 5 m/S 749 mmHg 34%
    21:00 +37°C° 0 mm 4 m/S 749 mmHg 36%
    22:00 +36°C° 0 mm 4 m/S 749 mmHg 36%
    23:00 +36°C° 0 mm 3 m/S 749 mmHg 35%

    26 Juni, Montag

    Zeit Temperatur Niederschläge Wind Luftdruck Luftfeuchtigkeit
    00:00 +36°C° 0 mm 3 m/S 749 mmHg 34%
    01:00 +36°C° 0 mm 3 m/S 749 mmHg 33%
    02:00 +36°C° 0 mm 4 m/S 748 mmHg 31%
    03:00 +36°C° 0 mm 4 m/S 748 mmHg 29%
    04:00 +36°C° 0 mm 5 m/S 749 mmHg 28%
    05:00 +36°C° 0 mm 5 m/S 749 mmHg 26%
    06:00 +36°C° 0 mm 5 m/S 749 mmHg 25%
    07:00 +39°C° 0 mm 6 m/S 749 mmHg 24%
    08:00 +41°C° 0 mm 6 m/S 750 mmHg 23%
    09:00 +44°C° 0 mm 7 m/S 750 mmHg 23%
    10:00 +44°C° 0 mm 7 m/S 750 mmHg 21%
    11:00 +45°C° 0 mm 7 m/S 750 mmHg 20%
    12:00 +46°C° 0 mm 7 m/S 750 mmHg 18%
    13:00 +46°C° 0 mm 6 m/S 750 mmHg 19%
    14:00 +45°C° 0 mm 6 m/S 749 mmHg 20%
    15:00 +45°C° 0 mm 6 m/S 749 mmHg 21%
    16:00 +44°C° 0 mm 6 m/S 749 mmHg 23%
    17:00 +42°C° 0 mm 6 m/S 749 mmHg 25%
    18:00 +41°C° 0 mm 6 m/S 749 mmHg 28%
    19:00 +40°C° 0 mm 6 m/S 749 mmHg 28%
    20:00 +40°C° 0 mm 6 m/S 750 mmHg 29%
    21:00 +39°C° 0 mm 6 m/S 750 mmHg 30%
    22:00 +39°C° 0 mm 6 m/S 749 mmHg 29%
    23:00 +39°C° 0 mm 6 m/S 749 mmHg 27%

    27 Juni, Dienstag

    Zeit Temperatur Niederschläge Wind Luftdruck Luftfeuchtigkeit
    00:00 +39°C° 0 mm 6 m/S 749 mmHg 26%
    01:00 +39°C° 0 mm 6 m/S 748 mmHg 25%
    02:00 +39°C° 0 mm 6 m/S 748 mmHg 25%
    03:00 +39°C° 0 mm 6 m/S 748 mmHg 24%
    04:00 +39°C° 0 mm 6 m/S 748 mmHg 24%
    05:00 +39°C° 0 mm 7 m/S 749 mmHg 24%
    06:00 +39°C° 0 mm 7 m/S 749 mmHg 24%
    07:00 +41°C° 0 mm 6 m/S 749 mmHg 20%
    08:00 +44°C° 0 mm 6 m/S 749 mmHg 17%
    09:00 +46°C° 0 mm 6 m/S 750 mmHg 13%
    10:00 +47°C° 0 mm 6 m/S 749 mmHg 13%
    11:00 +47°C° 0 mm 6 m/S 749 mmHg 13%
    12:00 +48°C° 0 mm 6 m/S 749 mmHg 12%
    13:00 +48°C° 0 mm 6 m/S 748 mmHg 13%
    14:00 +48°C° 0 mm 6 m/S 748 mmHg 14%
    15:00 +48°C° 0 mm 6 m/S 748 mmHg 14%
    16:00 +46°C° 0 mm 6 m/S 748 mmHg 17%
    17:00 +45°C° 0 mm 6 m/S 748 mmHg 19%
    18:00 +43°C° 0 mm 5 m/S 748 mmHg 21%
    19:00 +42°C° 0 mm 5 m/S 748 mmHg 23%
    20:00 +41°C° 0 mm 4 m/S 748 mmHg 25%
    21:00 +39°C° 0 mm 3 m/S 748 mmHg 27%
    22:00 +40°C° 0 mm 4 m/S 748 mmHg 25%
    23:00 +40°C° 0 mm 4 m/S 748 mmHg 24%

    28 Juni, Mittwoch

    Zeit Temperatur Niederschläge Wind Luftdruck Luftfeuchtigkeit
    00:00 +40°C° 0 mm 4 m/S 747 mmHg 23%
    01:00 +40°C° 0 mm 4 m/S 747 mmHg 23%
    02:00 +40°C° 0 mm 5 m/S 747 mmHg 23%
    03:00 +40°C° 0 mm 5 m/S 747 mmHg 23%
    04:00 +40°C° 0 mm 4 m/S 747 mmHg 22%
    05:00 +39°C° 0 mm 3 m/S 747 mmHg 21%
    06:00 +38°C° 0 mm 3 m/S 748 mmHg 20%
    07:00 +40°C° 0 mm 2 m/S 748 mmHg 18%
    08:00 +42°C° 0 mm 2 m/S 748 mmHg 16%
    09:00 +43°C° 0 mm 2 m/S 748 mmHg 14%
    10:00 +45°C° 0 mm 2 m/S 748 mmHg 14%
    11:00 +45°C° 0 mm 2 m/S 748 mmHg 15%
    12:00 +45°C° 0 mm 3 m/S 748 mmHg 15%
    13:00 +45°C° 0 mm 3 m/S 747 mmHg 16%
    14:00 +45°C° 0 mm 3 m/S 747 mmHg 16%
    15:00 +45°C° 0 mm 3 m/S 746 mmHg 17%
    16:00 +45°C° 0 mm 3 m/S 746 mmHg 18%
    17:00 +43°C° 0 mm 2 m/S 746 mmHg 18%
    18:00 +42°C° 0 mm 2 m/S 746 mmHg 19%
    19:00 +41°C° 0 mm 2 m/S 746 mmHg 20%
    20:00 +40°C° 0 mm 1 m/S 747 mmHg 21%
    21:00 +39°C° 0 mm 1 m/S 747 mmHg 22%
    22:00 +38°C° 0 mm 2 m/S 747 mmHg 25%
    23:00 +38°C° 0 mm 3 m/S 747 mmHg 29%
    Mehr zeigen